HULIANGWANG DIGUI-04

Last updated on Thu Jan 16 2025 00:02:04 GMT+0000 (Coordinated Universal Time)

1 62326U 24240D 25015.55731566 .00000072 00000+0 10781-3 0 9990 2 62326 86.5025 158.4177 0011280 208.8312 151.2207 13.37560767 4036
UTC large
Height (km)
Speed (km/s)
/
Latitude / Longitude
Inclination (degrees)
Orbital Period (minutes)
Azimuth
Elevation
Range (km)
Doppler Factor

Next 0 passes for location: London (51.5072 / 0.1276)

Sorry there are no passes over London.